Time,TemperatureF,DewpointF,PressureIn,WindDirection,WindDirectionDegrees,WindSpeedMPH,WindSpeedGustMPH,Humidity,HourlyPrecipIn,Conditions,Clouds,dailyrainin,SolarRadiationWatts/m^2,SoftwareType,DateUTC
2013-09-18 00:00:00,48.0,48.0,-100.00,SW,225,7.0,17.0,100,0.00,,,0.00,0.000000,,2013-09-18 07:00:00,
2013-09-18 00:22:00,48.0,48.0,-100.00,SW,225,7.0,17.0,100,0.00,,,0.00,0.000000,,2013-09-18 07:22:00,
2013-09-18 00:32:00,48.0,48.0,-100.00,SW,225,7.0,17.0,100,0.00,,,0.00,0.000000,,2013-09-18 07:32:00,
2013-09-18 00:42:00,48.0,48.0,-100.00,SW,225,7.0,17.0,100,0.00,,,0.00,0.000000,,2013-09-18 07:42:00,
2013-09-18 00:52:00,48.0,48.0,-100.00,SW,225,7.0,17.0,100,0.00,,,0.00,0.000000,,2013-09-18 07:52:00,
2013-09-18 01:00:00,49.0,49.0,-100.00,SSW,207,5.0,14.0,100,0.00,,,0.00,0.000000,,2013-09-18 08:00:00,
2013-09-18 01:23:00,49.0,49.0,-100.00,SSW,207,5.0,14.0,100,0.00,,,0.00,0.000000,,2013-09-18 08:23:00,
2013-09-18 01:32:00,49.0,49.0,-100.00,SSW,207,5.0,14.0,100,0.00,,,0.00,0.000000,,2013-09-18 08:32:00,
2013-09-18 01:42:00,49.0,49.0,-100.00,SSW,207,5.0,14.0,100,0.00,,,0.00,0.000000,,2013-09-18 08:42:00,
2013-09-18 01:52:00,49.0,49.0,-100.00,SSW,207,5.0,14.0,100,0.00,,,0.00,0.000000,,2013-09-18 08:52:00,
2013-09-18 02:00:00,49.0,49.0,-100.00,SW,222,6.0,16.0,100,0.00,,,0.00,0.000000,,2013-09-18 09:00:00,
2013-09-18 02:22:00,49.0,49.0,-100.00,SW,222,6.0,16.0,100,0.00,,,0.00,0.000000,,2013-09-18 09:22:00,
2013-09-18 02:33:00,49.0,49.0,-100.00,SW,222,6.0,16.0,100,0.00,,,0.00,0.000000,,2013-09-18 09:33:00,
2013-09-18 02:43:00,49.0,49.0,-100.00,SW,222,6.0,16.0,100,0.00,,,0.00,0.000000,,2013-09-18 09:43:00,
2013-09-18 02:53:00,49.0,49.0,-100.00,SW,222,6.0,16.0,100,0.00,,,0.00,0.000000,,2013-09-18 09:53:00,
2013-09-18 03:00:00,49.0,49.0,-100.00,SW,219,7.0,21.0,100,0.00,,,0.00,0.000000,,2013-09-18 10:00:00,
2013-09-18 03:23:00,49.0,49.0,-100.00,SW,219,7.0,21.0,100,0.00,,,0.00,0.000000,,2013-09-18 10:23:00,
2013-09-18 03:33:00,49.0,49.0,-100.00,SW,219,7.0,21.0,100,0.00,,,0.00,0.000000,,2013-09-18 10:33:00,
2013-09-18 03:43:00,49.0,49.0,-100.00,SW,219,7.0,21.0,100,0.00,,,0.00,0.000000,,2013-09-18 10:43:00,
2013-09-18 03:53:00,49.0,49.0,-100.00,SW,219,7.0,21.0,100,0.00,,,0.00,0.000000,,2013-09-18 10:53:00,
2013-09-18 04:00:00,49.0,49.0,-100.00,SW,225,6.0,14.0,100,0.00,,,0.00,0.000000,,2013-09-18 11:00:00,
2013-09-18 04:22:00,49.0,49.0,-100.00,SW,225,6.0,14.0,100,0.00,,,0.00,0.000000,,2013-09-18 11:22:00,
2013-09-18 04:33:00,49.0,49.0,-100.00,SW,225,6.0,14.0,100,0.00,,,0.00,0.000000,,2013-09-18 11:33:00,
2013-09-18 04:42:00,49.0,49.0,-100.00,SW,225,6.0,14.0,100,0.00,,,0.00,0.000000,,2013-09-18 11:42:00,
2013-09-18 04:52:00,49.0,49.0,-100.00,SW,225,6.0,14.0,100,0.00,,,0.00,0.000000,,2013-09-18 11:52:00,
2013-09-18 05:00:00,49.0,49.0,-100.00,SSW,211,7.0,20.0,100,0.00,,,0.00,0.000000,,2013-09-18 12:00:00,
2013-09-18 05:43:00,49.0,49.0,-100.00,SSW,211,7.0,20.0,100,0.00,,,0.00,0.000000,,2013-09-18 12:43:00,
2013-09-18 05:52:00,49.0,49.0,-100.00,SSW,211,7.0,20.0,100,0.00,,,0.00,0.000000,,2013-09-18 12:52:00,
2013-09-18 20:00:00,50.0,50.0,-100.00,SW,219,9.0,13.0,100,0.00,,,0.00,4.000000,,2013-09-19 03:00:00,
2013-09-18 21:00:00,48.0,48.0,-100.00,SSW,213,4.0,11.0,100,0.00,,,0.00,0.000000,,2013-09-19 04:00:00,
2013-09-18 21:25:00,48.0,48.0,-100.00,SSW,213,4.0,11.0,100,0.00,,,0.00,0.000000,,2013-09-19 04:25:00,
2013-09-18 21:34:00,48.0,48.0,-100.00,SSW,213,4.0,11.0,100,0.00,,,0.00,0.000000,,2013-09-19 04:34:00,
2013-09-18 21:44:00,48.0,48.0,-100.00,SSW,213,4.0,11.0,100,0.00,,,0.00,0.000000,,2013-09-19 04:44:00,
2013-09-18 21:54:00,48.0,48.0,-100.00,SSW,213,4.0,11.0,100,0.00,,,0.00,0.000000,,2013-09-19 04:54:00,
2013-09-18 22:00:00,48.0,47.0,-100.00,South,182,2.0,7.0,96,0.00,,,0.00,0.000000,,2013-09-19 05:00:00,
2013-09-18 22:23:00,48.0,47.0,-100.00,South,182,2.0,7.0,96,0.00,,,0.00,0.000000,,2013-09-19 05:23:00,
2013-09-18 22:34:00,48.0,47.0,-100.00,South,182,2.0,7.0,96,0.00,,,0.00,0.000000,,2013-09-19 05:34:00,
2013-09-18 22:43:00,48.0,47.0,-100.00,South,182,2.0,7.0,96,0.00,,,0.00,0.000000,,2013-09-19 05:43:00,
2013-09-18 22:52:00,48.0,47.0,-100.00,South,182,2.0,7.0,96,0.00,,,0.00,0.000000,,2013-09-19 05:52:00,
2013-09-18 23:00:00,50.0,50.0,-100.00,East,101,3.0,5.0,99,0.00,,,0.00,0.000000,,2013-09-19 06:00:00,
2013-09-18 23:22:00,50.0,50.0,-100.00,East,101,3.0,5.0,99,0.00,,,0.00,0.000000,,2013-09-19 06:22:00,
2013-09-18 23:32:00,50.0,50.0,-100.00,East,101,3.0,5.0,99,0.00,,,0.00,0.000000,,2013-09-19 06:32:00,
2013-09-18 23:43:00,50.0,50.0,-100.00,East,101,3.0,5.0,99,0.00,,,0.00,0.000000,,2013-09-19 06:43:00,
2013-09-18 23:52:00,50.0,50.0,-100.00,East,101,3.0,5.0,99,0.00,,,0.00,0.000000,,2013-09-19 06:52:00,